LEMUR-2-ALEXANDER (43559 NORAD) Tracking and Keplerian Element Data

This shows tracking and keplerian element data for the satellite.

Feedback or suggestion? Click here.




ElementValue
Catalog43559
NameLEMUR-2-ALEXANDER
Epoch Orbit1811
Epoch Day317.48579683
Epoch Year2018
RAAN17.8344
Inclination51.6437
Eccentricity0.0008131
Argument of Perigee19.511
Mean Anonmoly340.6179
Mean Motion15.28308982
Decay Rate1.911E-05
L11 43559U 18046F 18317.48579683 .00001911 00000-0 80984-4 0 9990
L22 43559 51.6437 17.8344 0008131 19.5110 340.6179 15.28308982 18118

Live tracking and technical data element details for LEMUR-2-ALEXANDER (NORAD 43559). LEMUR-2-ALEXANDER can be tracked NOW for your location showing map with azimuth and elevation plus other details from your city location.

Track the satellite on the map from your city or location and see movement details for azimuth, elevation, latitude, longitude, range, height, and movement on the map or in text.







IsCatalogInMostPopularTable: catalog: 43559, numindb: 41
Update: records affected: 1



GetName: 43559 LEMUR-2-ALEXANDER

Hit Count: updated at: Thu, 15 Nov 2018 03:55:21 GMT